Location: İstanbul
(41.0082°N, 28.9784°E)
Time: 22:17:28
(UTC+03:00)

UKube-1 - Visible Passes

Search period start: 22 April 2024 00:00
Search period end: 02 May 2024 00:00
Orbit: 588 x 591 km, 98.3° (Epoch: 22 April)

Date Brightness Start Highest point End Pass type
(mag) Time Alt. Az. Time Alt. Az. Time Alt. Az.
22 Apr ? 01:35:30 10° NNE 01:36:10 14° NNE 01:36:10 14° NNE visible
22 Apr ? 03:11:48 10° NNW 03:12:42 13° NW 03:12:42 13° NW visible
23 Apr ? 01:43:13 10° NNE 01:44:10 16° NNE 01:44:10 16° NNE visible
23 Apr ? 03:20:00 10° NNW 03:20:42 12° NW 03:20:42 12° NW visible
24 Apr ? 01:50:57 10° NNE 01:52:07 18° NNE 01:52:07 18° NNE visible
24 Apr ? 03:28:18 10° NW 03:28:39 11° NW 03:28:39 11° NW visible
25 Apr ? 01:58:40 10° NNE 02:00:03 20° NNE 02:00:03 20° NNE visible
26 Apr ? 02:06:22 10° NNE 02:07:57 23° NNE 02:07:57 23° NNE visible
27 Apr ? 02:14:04 10° N 02:15:49 24° N 02:15:49 24° N visible
28 Apr ? 02:21:46 10° N 02:23:39 25° N 02:23:39 25° N visible
29 Apr ? 02:29:27 10° N 02:31:26 26° N 02:31:26 26° N visible
30 Apr ? 02:37:07 10° N 02:39:12 26° NNW 02:39:12 26° NNW visible
01 May ? 01:10:02 10° NE 01:10:25 12° NE 01:10:25 12° NE visible
01 May ? 02:44:47 10° N 02:46:56 25° NNW 02:46:56 25° NNW visible
